Flag for Germany Weather past 2 weeks in Deggendorf, Bavaria, Germany

Now
77 °F

Clear.


Feels Like: 78 °F
Forecast: 61 / 90 °F
Wind: 1 mph from Southeast

Location: Straubing

Current Time: Jul 4, 2015 at 12:39:11 AM

Latest Report: Jul 3, 2015 at 10:00 PM


Visibility: 17 mi

Pressure: 30.21 "Hg

Humidity: 73%

Dew point: 67 °F

Location of DeggendorfLocation

Historic Weather in Deggendorf — Graph

°F

Deggendorf temperature yesterday

Maximum temperature yesterday: 87 °F (at 4:00 PM)
Minimum temperature yesterday: 62 °F (at 3:00 AM)
Average temperature yesterday: 76 °F

Past Weeks' High & Low Weather Summary

 TemperatureHumidityPressure
High87 °F (Jul 3, 4:00 PM)99% (Jun 18, 10:00 PM)30.27 "Hg (Jun 18, 10:00 PM)
Low44 °F (Jun 25, 5:00 AM)38% (Jun 25, 4:00 PM)29.76 "Hg (Jun 23, 3:00 AM)
Average63 °F74%30.10 "Hg
* Reported Jun 18 10:00 PM — Jul 3 10:00 PM, Deggendorf, Weather by CustomWeather, © 2015

Note: Actual official high and low records may vary slightly from our data, if they occured in-between our weather recording intervals... More about our weather records

Advertising

Deggendorf weather history for previous 24 hours

 ConditionsComfort  
Time TempWeatherWind HumidityBarometerVisibility
10:00 PM
Fri, Jul 3
77 °FClear.1 mph73%30.21 "Hg17 mi
9:00 PM81 °FSunny.1 mph58%30.19 "Hg22 mi
8:00 PM85 °FPassing clouds.1 mph47%30.19 "Hg22 mi
7:00 PM86 °FSunny.2 mph42%30.17 "Hg22 mi
6:00 PM86 °FSunny.2 mph40%30.18 "Hg25 mi
4:00 PM87 °FSunny.1 mph39%30.20 "Hg22 mi
3:00 PM87 °FSunny.2 mph43%30.22 "Hg19 mi
2:00 PM86 °FSunny.3 mph45%30.23 "Hg14 mi
1:00 PM83 °FSunny.3 mph50%30.24 "Hg10 mi
12:00 PM81 °FSunny.3 mph56%30.24 "Hg14 mi
10:00 AM77 °FSunny.5 mph60%30.26 "Hg11 mi
9:00 AM74 °FSunny.5 mph64%30.25 "Hg6 mi
8:00 AM70 °FSunny.1 mph74%30.26 "Hg6 mi
7:00 AM67 °FFog.1 mph84%30.26 "Hg4 mi
4:00 AM63 °FClear.2 mph88%30.23 "Hg6 mi
3:00 AM62 °FFog.2 mph95%30.24 "Hg4 mi
2:00 AM64 °FClear.1 mph92%30.24 "Hg5 mi
1:00 AM67 °FClear.1 mph88%30.22 "Hg6 mi
12:00 AM66 °FClear.2 mph89%30.22 "Hg7 mi
Weather by CustomWeather, © 2015

See weather overviewHow to use our weather pages